カタログに戻る

GRBBeta

運用中アマチュア無線VLEO
NORAD 60237·PAYLOAD·🇸🇰 Slovakia

打ち上げ Jul 9, 2024 から Guiana Space Centre

Loading…

次のパス (今後24時間)

TLE

最新Source: AMSAT

元期: Sep 14, 2026, 12:51 UTC

1 60237U 24128C   26257.53551428  .00002351  00000-0  16864-3 0  9999
2 60237  61.9881 262.6541 0027536 154.3428 205.9038 15.07170935119735

AllMySatでGRBBetaをリアルタイム追跡

Download on the App Store